Satellite-Ground Cal/Val Region Overpasses Predictions

Prediction of Satellite NPP Overpassing Cal/Val Region: PacNW

Region Location: (Latitude: 10.00, Longitude: 139.50) to (Latitude: 22.70, Longitude: 165.60).

Table of predicted overpasses for the next 14.0 days since TLE Epoch: 7/8/2016
Interval Starting Time Starting Location Ending Time Ending Location
1 07/09/2016 02:21:09 ( 10.04, 164.63) 07/09/2016 02:24:44 ( 22.67, 161.63)
2 07/09/2016 14:53:02 ( 22.65, 161.86) 07/09/2016 14:56:37 ( 10.03, 158.86)
3 07/10/2016 03:43:37 ( 10.03, 144.02) 07/10/2016 03:47:12 ( 22.66, 141.02)
4 07/10/2016 14:35:12 ( 18.44, 165.59) 07/10/2016 14:37:35 ( 10.05, 163.62)
5 07/10/2016 16:15:30 ( 22.66, 141.25) 07/10/2016 16:17:32 ( 15.50, 139.51)
6 07/11/2016 03:24:34 ( 10.02, 148.78) 07/11/2016 03:28:09 ( 22.64, 145.78)
7 07/11/2016 15:56:27 ( 22.68, 146.01) 07/11/2016 16:00:02 ( 10.05, 143.01)
8 07/12/2016 03:05:32 ( 10.00, 153.54) 07/12/2016 03:09:08 ( 22.69, 150.53)
9 07/12/2016 15:37:25 ( 22.69, 150.77) 07/12/2016 15:41:01 ( 10.01, 147.76)
10 07/13/2016 02:46:31 ( 10.05, 158.29) 07/13/2016 02:50:06 ( 22.67, 155.29)
11 07/13/2016 15:18:23 ( 22.65, 155.52) 07/13/2016 15:21:58 ( 10.03, 152.52)
12 07/14/2016 02:27:28 ( 10.03, 163.05) 07/14/2016 02:31:03 ( 22.66, 160.05)
13 07/14/2016 14:59:21 ( 22.66, 160.28) 07/14/2016 15:02:56 ( 10.04, 157.28)
14 07/15/2016 02:11:07 ( 19.48, 165.59) 07/15/2016 02:12:01 ( 22.64, 164.81)
15 07/15/2016 03:49:56 ( 10.03, 142.44) 07/15/2016 03:53:26 ( 22.36, 139.51)
16 07/15/2016 14:40:18 ( 22.68, 165.04) 07/15/2016 14:43:53 ( 10.06, 162.04)
17 07/15/2016 16:21:48 ( 22.67, 139.67) 07/15/2016 16:21:59 ( 22.03, 139.51)
18 07/16/2016 03:30:53 ( 10.01, 147.20) 07/16/2016 03:34:29 ( 22.70, 144.18)
19 07/16/2016 16:02:46 ( 22.68, 144.43) 07/16/2016 16:06:22 ( 10.01, 141.42)
20 07/17/2016 03:11:52 ( 10.06, 151.95) 07/17/2016 03:15:27 ( 22.68, 148.95)
21 07/17/2016 15:43:43 ( 22.70, 149.19) 07/17/2016 15:47:19 ( 10.02, 146.18)
22 07/18/2016 02:52:49 ( 10.04, 156.71) 07/18/2016 02:56:24 ( 22.67, 153.71)
23 07/18/2016 15:24:42 ( 22.65, 153.94) 07/18/2016 15:28:17 ( 10.04, 150.94)
24 07/19/2016 02:33:47 ( 10.03, 161.47) 07/19/2016 02:37:22 ( 22.66, 158.47)
25 07/19/2016 15:05:40 ( 22.67, 158.70) 07/19/2016 15:09:15 ( 10.05, 155.70)
26 07/20/2016 02:15:31 ( 12.78, 165.60) 07/20/2016 02:18:19 ( 22.64, 163.23)
27 07/20/2016 03:56:14 ( 10.03, 140.86) 07/20/2016 03:57:53 ( 15.84, 139.51)
28 07/20/2016 14:46:37 ( 22.68, 163.46) 07/20/2016 14:50:13 ( 10.01, 160.45)
29 07/21/2016 03:37:12 ( 10.01, 145.62) 07/21/2016 03:40:48 ( 22.70, 142.60)
30 07/21/2016 14:30:43 ( 11.66, 165.59) 07/21/2016 14:31:11 ( 10.02, 165.21)
31 07/21/2016 16:09:05 ( 22.69, 142.85) 07/21/2016 16:12:41 ( 10.01, 139.83)
32 07/22/2016 03:18:09 ( 10.00, 150.38) 07/22/2016 03:21:45 ( 22.69, 147.36)


NCC Satellite Cal/Val Overpasses Prediction Service
